Regional Weather Roundup
Issued by NWS Little Rock, AR

Home | Current Version | Previous Version | Text Only | Print | Product List | Glossary On
Versions: 1 2 3 4 5 6 7 8 9 10 11 12 13 14 15 16 17 18 19 20 21 22 23 24 25 26 27 28 29 30 31 32 33 34 35 36 37 38 39 40 41 42 43 44 45 46 47 48 49 50
000
ASUS44 KLZK 211610
RWRLZK
ARKANSAS STATE WEATHER ROUNDUP
NATIONAL WEATHER SERVICE LITTLE ROCK AR
ISSUED BY NATIONAL WEATHER SERVICE MEMPHIS TN
1100 AM CDT THU SEP 21 2017

NOTE: "FAIR" INDICATES FEW OR NO CLOUDS BELOW 12,000 FEET WITH NO
SIGNIFICANT WEATHER AND/OR OBSTRUCTIONS TO VISIBILITY.

ARZ001-003-010-029-211700-
NORTHWEST ARKANSAS

CITY           SKY/WX    TMP DP  RH WIND       PRES   REMARKS
FORT SMITH     CLOUDY    83  74  74 SE8       30.00S
HARRISON       SUNNY     83  71  67 S13       30.06S
BENTONVILLE    SUNNY     83  72  69 S13       30.04S
ROGERS         MOSUNNY   83  72  69 S10       30.04S
SILOAM SPGS    SUNNY     84  73  69 S15       30.02S HX  90
HIGHFILL       SUNNY     85  73  67 S15       30.02S HX  91
SPRINGDALE     PTSUNNY   82  72  69 S12       30.05R
$$

ARZ004-005-016-211700-
NORTH CENTRAL ARKANSAS

CITY           SKY/WX    TMP DP  RH WIND       PRES   REMARKS
BATESVILLE     SUNNY    N/A N/A N/A S9        30.06S
FLIPPIN        SUNNY     85  71  63 VRB6      30.05S HX  90
MTN HOME       SUNNY     83  72  69 S9        30.05S
$$

ARZ040-041-211700-
WEST CENTRAL ARKANSAS

CITY           SKY/WX    TMP DP  RH WIND       PRES   REMARKS
MOUNT IDA      PTSUNNY   81  71  71 VRB5      30.03F
$$

ARZ017-025-026-028-211700-
NORTHEAST ARKANSAS

CITY           SKY/WX    TMP DP  RH WIND       PRES   REMARKS
JONESBORO      SUNNY     86  77  74 S5        30.05F HX  97
NEWPORT        SUNNY     86  74  67 SW6       30.06S HX  94
BLYTHEVILLE    SUNNY     86  76  71 SW5       30.07S HX  96
$$

ARZ022-033-042-044-211700-
CENTRAL ARKANSAS

CITY           SKY/WX    TMP DP  RH WIND       PRES   REMARKS
LITTLE ROCK    MOSUNNY   82  75  79 W7        30.06S
JACKSONVILLE   SUNNY     84  74  72 S8        30.05S HX  91
SEARCY         SUNNY     85  76  74 S5        30.07S HX  94
HOT SPRINGS    CLOUDY    80  74  81 SW7       30.06S
RUSSELLVILLE   CLOUDY    82  73  74 S5        30.03S
$$

ARZ036-211700-
EAST ARKANSAS

CITY           SKY/WX    TMP DP  RH WIND       PRES   REMARKS
WEST MEMPHIS   SUNNY     85  75  72 S5        30.06S HX  93
$$

ARZ050-070-073-211700-
SOUTHWEST ARKANSAS

CITY           SKY/WX    TMP DP  RH WIND       PRES   REMARKS
TEXARKANA      MOSUNNY   83  73  72 S8        30.03S
EL DORADO      CLOUDY    80  73  79 SW5       30.06R
DEQUEEN        CLOUDY    81  76  84 SE5       30.01S
$$

ARZ056-057-069-211700-
SOUTHEAST ARKANSAS

CITY           SKY/WX    TMP DP  RH WIND       PRES   REMARKS
PINE BLUFF     SUNNY     85  73  67 VRB3      30.06S HX  91
STUTTGART      MOSUNNY   84  75  74 S5        30.06F HX  92
MONTICELLO     MOSUNNY   84  73  69 CALM      30.06S HX  90
$$




USA.gov is the U.S. government's official web portal to all federal, state and local government web resources and services.